Wind_Speed
18 19 18 17 18 18 17 17 18 18 18 19 19 19 19 18 18 18 18 19 19 20 20 20 20 21 20 20 20 19 20 20 21 21 21 21 21 21 22 22 22 23 23
19 18 18 17 17 17 17 18 18 18 19 19 20 19 19 19 19 19 19 19 20 21 21 21 22 21 22 21 21 21 21 22 22 23 23 23 23 23 23 23 23 24 24
18 18 18 18 18 18 18 18 18 19 19 19 19 19 18 19 20 20 20 20 20 21 22 23 22 22 22 22 22 22 22 23 24 24 25 25 25 25 25 25 25 26 26
19 18 18 18 19 18 18 18 19 19 19 20 20 19 19 19 19 20 20 20 20 21 22 22 22 22 22 23 23 23 24 24 25 26 26 26 27 27 27 27 27 27 28
19 19 18 18 19 18 19 19 19 19 20 20 20 19 19 19 20 20 21 21 21 21 22 22 22 23 23 23 24 24 24 25 25 26 27 28 28 29 29 29 30 30 30
19 19 18 19 18 18 19 19 19 20 20 20 20 20 20 21 21 21 21 21 22 22 22 23 23 23 23 24 25 25 26 26 26 27 27 28 29 30 31 31 31 31 31
19 20 19 19 18 18 19 20 20 20 20 20 20 20 20 21 21 20 21 22 23 23 23 23 23 24 25 25 26 26 27 27 28 29 29 29 30 31 32 32 33 32 33
18 18 18 19 20 20 20 19 18 18 19 19 19 19 20 20 20 20 20 20 21 22 23 23 24 25 25 26 26 27 28 28 29 30 30 30 30 31 32 33 33 33 33
18 18 19 19 20 20 19 18 17 18 19 19 19 20 20 19 19 20 21 21 21 22 23 24 24 25 26 27 27 28 29 29 30 30 31 31 31 31 31 33 34 34 34
18 18 19 19 18 17 17 18 18 18 19 19 19 19 18 19 20 20 21 22 22 23 23 24 24 24 25 27 28 29 30 30 31 32 32 32 31 32 32 33 34 35 35
18 19 18 17 17 17 17 18 18 18 17 17 17 18 19 20 21 21 21 22 23 23 24 24 25 26 25 26 27 28 29 30 31 32 32 32 32 33 33 34 35 36 36
17 17 16 16 16 17 18 18 17 16 16 17 17 18 19 20 21 22 22 23 24 25 25 25 25 25 26 26 27 27 28 30 31 32 32 32 33 34 34 34 35 36 36
15 14 14 15 15 15 16 16 16 16 16 17 18 19 20 20 21 22 23 24 24 25 26 26 26 25 26 26 26 27 28 29 30 31 31 32 33 33 34 35 36 36 37
14 14 15 15 15 15 15 15 16 17 17 18 19 20 20 21 22 23 23 24 25 25 25 26 25 26 26 26 26 27 28 29 30 30 31 32 33 33 34 35 35 36 37
14 14 15 15 14 14 14 15 15 17 18 18 20 21 21 22 23 24 25 25 24 24 25 25 25 25 25 26 27 28 28 29 30 31 32 33 33 34 35 35 35 35 35
13 14 14 13 13 13 14 15 16 17 18 20 21 21 22 23 24 24 24 24 24 24 23 23 24 25 26 26 27 29 29 30 31 31 31 32 33 34 34 35 35 35 36
12 12 13 13 13 13 14 15 16 17 18 19 20 21 22 22 23 22 22 22 23 23 22 23 24 25 26 27 28 29 30 30 31 32 32 32 31 32 33 34 35 35 35
12 13 12 12 12 13 15 15 17 17 18 19 19 19 20 21 21 20 21 21 21 22 22 22 23 25 26 27 27 28 29 30 30 31 31 31 31 31 31 32 34 34 35
12 12 12 12 12 13 14 15 17 17 18 18 19 19 20 20 20 20 21 21 21 21 22 22 23 24 25 26 26 27 28 29 30 30 31 32 31 31 32 31 32 34 34
11 11 12 12 13 13 14 15 16 17 17 18 19 20 21 20 21 21 21 21 22 22 23 23 24 25 26 26 27 27 27 27 28 28 29 29 30 31 31 31 32 34 35
11 12 12 13 13 14 15 16 16 17 18 18 19 20 20 21 21 21 21 21 22 23 24 24 24 25 26 26 26 27 26 26 26 27 27 28 29 30 30 30 32 33 35
12 12 12 12 13 15 15 16 18 18 19 19 19 20 21 21 21 21 22 22 23 24 24 24 25 25 25 25 25 25 25 26 26 25 26 26 27 28 29 30 31 32 33
13 13 13 14 15 16 17 17 18 18 19 19 20 21 20 20 21 21 22 23 23 23 23 24 24 24 24 24 25 25 25 25 25 25 25 26 27 28 29 30 31 31 32
14 14 14 15 16 17 18 18 19 19 19 19 20 21 21 21 21 21 22 23 23 23 24 24 24 23 23 23 24 24 24 24 25 25 25 26 26 27 28 29 30 30 31
15 15 16 17 17 17 18 19 19 18 19 20 20 21 21 21 22 22 22 22 22 23 23 23 23 23 23 23 23 24 23 24 24 24 24 24 25 26 27 28 28 28 29
16 17 17 17 18 19 19 18 18 19 19 20 21 21 22 22 23 22 22 22 23 23 23 23 23 22 22 23 24 24 24 24 24 23 22 22 23 24 24 23 23 24 25
Wind_Direction
276 278 280 283 284 281 279 280 282 284 285 284 284 284 282 281 279 278 273 268 267 265 263 260 260 260 261 261 260 262 262 258 258 257 255 255 255 254 253 252 251 251 250
277 281 281 282 285 284 281 281 283 284 286 285 285 285 282 280 278 277 275 270 266 264 264 262 261 261 263 262 261 262 262 260 259 258 257 256 254 255 254 253 253 253 251
278 281 281 281 284 284 283 283 284 284 286 286 285 284 283 279 277 275 274 271 267 265 267 266 263 262 261 261 261 261 262 262 261 259 259 257 256 254 254 254 255 254 253
280 282 282 282 282 283 283 285 286 286 286 286 284 282 281 279 277 274 272 270 268 268 269 269 264 262 262 261 262 263 262 263 261 260 260 258 257 256 255 255 255 254 252
277 279 280 280 281 282 282 284 286 287 287 287 285 284 282 279 278 275 273 271 269 268 268 271 267 264 264 263 263 263 262 261 261 260 259 258 257 257 257 257 255 254 252
277 278 279 279 282 284 284 284 285 286 287 287 285 284 283 280 278 276 274 273 271 267 265 268 268 269 267 266 266 265 263 261 260 259 259 260 261 260 259 257 255 254 252
278 278 280 280 284 285 286 286 285 286 286 285 285 284 283 282 280 279 275 272 270 267 265 266 268 270 268 268 268 269 266 265 263 261 260 261 261 260 259 257 255 254 252
282 283 281 283 285 285 286 287 284 285 285 285 286 285 283 280 279 278 276 275 273 269 269 269 268 270 271 270 269 269 269 268 265 264 263 262 261 260 259 256 254 254 253
283 282 283 284 286 287 287 287 286 285 285 285 285 285 282 276 277 277 276 275 273 271 272 274 272 272 271 271 271 269 268 267 267 266 265 262 261 259 258 255 254 254 253
284 283 284 283 284 286 287 288 288 287 287 287 288 287 284 280 276 277 278 277 275 274 275 276 274 275 275 275 273 271 268 267 266 267 266 264 262 260 258 255 254 253 253
283 282 283 284 284 286 287 290 290 289 289 289 288 289 288 285 282 280 279 278 278 278 278 279 277 276 278 277 275 274 271 268 266 267 265 263 263 262 261 260 257 255 253
286 284 282 284 285 287 288 290 291 291 289 289 289 290 289 287 284 283 281 280 281 282 282 281 280 279 278 278 277 275 274 271 270 269 266 264 263 262 262 261 259 258 255
285 286 287 285 287 289 290 290 291 294 290 288 288 289 290 289 288 287 286 285 283 282 281 280 279 280 278 277 279 278 277 274 273 271 268 266 264 263 263 261 259 258 256
290 291 290 289 289 291 291 291 292 293 292 290 290 291 291 291 291 291 290 287 285 283 281 280 280 279 277 276 277 279 279 277 274 272 271 268 266 264 264 262 260 259 256
291 290 289 289 287 289 292 295 297 297 296 294 294 294 294 294 295 295 293 291 288 285 282 282 282 281 279 278 278 279 280 279 276 274 273 269 268 266 264 262 260 258 256
292 288 284 287 290 291 297 301 302 302 298 297 297 296 298 297 297 296 294 292 291 289 287 286 283 281 280 279 279 281 280 280 279 277 274 271 269 267 265 262 260 259 258
291 294 291 292 294 296 303 304 302 303 303 303 301 299 299 299 299 298 297 296 295 294 291 288 286 284 283 283 282 281 280 280 280 279 276 273 271 268 265 262 261 259 258
287 295 297 295 296 299 302 304 305 305 306 308 308 306 304 302 300 301 300 300 300 298 296 294 292 290 288 289 287 284 283 283 281 279 277 275 273 270 268 264 261 259 258
290 294 295 297 299 303 305 306 308 308 309 309 311 310 308 305 302 303 303 302 302 301 300 297 295 294 292 290 291 289 287 286 284 281 278 275 272 272 271 267 263 260 259
292 294 295 297 300 304 309 311 310 311 312 312 312 312 310 307 306 307 305 303 301 301 301 299 297 295 294 293 293 292 289 288 286 285 282 277 274 273 272 270 266 262 261
292 294 297 298 300 304 308 310 311 313 313 313 313 313 313 312 310 308 308 306 305 303 303 302 300 299 298 297 295 296 293 291 289 287 284 280 277 276 274 272 269 265 262
294 297 301 303 304 305 306 306 310 313 315 315 314 314 315 313 313 311 310 309 309 308 306 305 304 303 302 300 298 297 295 293 291 289 287 285 282 280 278 274 270 266 263
295 298 301 303 304 305 306 309 310 312 314 315 316 317 319 317 315 313 312 312 312 312 309 309 308 306 304 302 301 300 298 295 293 291 288 286 285 282 279 276 273 270 265
295 297 300 301 302 304 306 308 308 309 312 316 317 318 318 319 317 317 317 316 316 315 312 310 309 307 304 304 306 305 301 296 294 293 290 288 286 284 280 278 275 271 267
295 297 299 302 302 303 305 306 304 311 313 315 316 317 317 317 317 316 317 318 318 318 317 314 312 311 307 306 308 307 305 301 299 299 296 292 289 287 284 279 276 273 270
295 297 299 300 300 302 304 306 309 311 311 313 315 316 317 317 318 318 317 317 319 319 319 318 317 316 314 312 311 310 308 306 303 303 301 298 295 292 290 285 279 274 271
Height
5857 5856 5855 5855 5854 5853 5852 5851 5850 5849 5848 5847 5845 5844 5844 5842 5842 5841 5840 5840 5840 5840 5839 5839 5840 5840 5840 5841 5841 5842 5842 5843 5843 5844 5845 5845 5846 5847 5848 5849 5850 5852 5853
5853 5852 5852 5851 5850 5849 5848 5847 5846 5844 5844 5842 5841 5839 5839 5837 5837 5836 5835 5834 5834 5834 5834 5834 5834 5835 5835 5835 5836 5837 5837 5837 5838 5839 5839 5840 5841 5842 5843 5844 5845 5846 5847
5849 5848 5847 5847 5846 5845 5844 5843 5841 5840 5839 5838 5836 5834 5833 5832 5831 5831 5830 5829 5829 5829 5829 5829 5829 5829 5829 5830 5830 5831 5831 5832 5832 5833 5833 5834 5835 5835 5836 5838 5839 5840 5841
5844 5843 5843 5842 5841 5840 5839 5838 5837 5835 5834 5832 5831 5829 5828 5827 5826 5825 5825 5824 5824 5823 5823 5823 5824 5824 5824 5824 5824 5824 5825 5825 5826 5826 5827 5827 5828 5829 5830 5831 5832 5833 5834
5839 5838 5838 5837 5836 5835 5834 5833 5831 5830 5828 5827 5826 5824 5823 5821 5820 5820 5819 5818 5818 5818 5818 5817 5818 5818 5818 5817 5818 5818 5818 5818 5819 5819 5819 5820 5821 5821 5822 5823 5824 5825 5826
5834 5833 5833 5832 5831 5830 5828 5827 5825 5824 5823 5821 5820 5819 5817 5816 5815 5814 5813 5812 5812 5812 5812 5812 5811 5811 5811 5811 5811 5811 5811 5811 5811 5811 5812 5812 5813 5813 5814 5815 5816 5816 5818
5829 5828 5827 5826 5825 5824 5823 5821 5820 5818 5817 5815 5814 5813 5811 5810 5809 5808 5807 5806 5806 5806 5806 5805 5805 5804 5804 5804 5804 5804 5803 5803 5803 5803 5804 5804 5804 5804 5805 5806 5806 5807 5809
5824 5823 5822 5821 5820 5819 5817 5815 5814 5813 5811 5810 5808 5807 5806 5805 5803 5802 5801 5800 5800 5800 5799 5799 5798 5797 5797 5796 5796 5796 5795 5795 5795 5795 5795 5795 5795 5795 5796 5796 5797 5798 5799
5819 5818 5817 5816 5815 5813 5812 5811 5809 5808 5806 5805 5803 5802 5800 5799 5798 5797 5795 5795 5794 5793 5793 5792 5791 5790 5789 5788 5788 5787 5787 5786 5786 5786 5786 5786 5786 5786 5786 5787 5788 5789 5790
5814 5813 5812 5811 5810 5808 5807 5805 5804 5803 5801 5799 5797 5796 5795 5793 5792 5791 5790 5788 5788 5787 5786 5785 5783 5782 5781 5780 5779 5778 5777 5776 5776 5776 5776 5776 5776 5776 5776 5777 5778 5779 5781
5809 5808 5807 5806 5804 5803 5802 5800 5799 5797 5795 5793 5792 5791 5789 5787 5786 5785 5784 5782 5781 5780 5779 5777 5776 5774 5773 5771 5770 5769 5768 5767 5766 5766 5766 5766 5766 5766 5767 5767 5768 5769 5770
5804 5802 5802 5801 5799 5798 5797 5795 5794 5792 5790 5789 5787 5785 5784 5782 5780 5778 5777 5776 5774 5773 5771 5770 5768 5766 5765 5763 5761 5760 5759 5758 5757 5756 5756 5756 5756 5756 5757 5757 5758 5759 5760
5799 5798 5797 5796 5794 5793 5792 5790 5789 5787 5785 5784 5782 5780 5778 5776 5774 5772 5770 5768 5767 5765 5763 5762 5760 5758 5756 5755 5753 5751 5750 5749 5748 5747 5746 5746 5746 5746 5746 5747 5747 5748 5749
5795 5794 5793 5791 5790 5789 5787 5786 5784 5782 5780 5778 5776 5774 5772 5770 5767 5765 5763 5761 5759 5757 5755 5753 5752 5750 5748 5747 5745 5743 5741 5740 5738 5737 5736 5736 5736 5736 5736 5736 5736 5737 5738
5791 5790 5788 5787 5785 5784 5783 5781 5779 5777 5775 5773 5770 5768 5766 5763 5761 5758 5755 5753 5751 5749 5747 5745 5743 5742 5740 5739 5737 5735 5733 5731 5729 5728 5726 5726 5725 5725 5725 5725 5725 5726 5727
5787 5785 5784 5783 5781 5780 5778 5776 5775 5772 5770 5767 5765 5762 5760 5757 5754 5751 5748 5745 5743 5741 5739 5737 5735 5734 5732 5730 5729 5726 5724 5722 5720 5718 5716 5715 5715 5714 5714 5714 5714 5715 5716
5782 5781 5780 5778 5777 5776 5774 5772 5770 5768 5765 5762 5759 5757 5754 5751 5747 5744 5741 5738 5736 5733 5731 5730 5727 5726 5724 5722 5720 5718 5715 5713 5710 5708 5707 5705 5704 5704 5703 5703 5704 5704 5705
5778 5777 5775 5774 5772 5771 5769 5767 5765 5763 5760 5757 5754 5751 5748 5745 5742 5739 5735 5732 5730 5727 5725 5723 5721 5718 5716 5714 5711 5708 5706 5703 5701 5699 5697 5696 5695 5694 5693 5692 5693 5693 5694
5774 5773 5772 5770 5768 5767 5765 5763 5760 5758 5755 5752 5749 5746 5743 5739 5736 5733 5730 5727 5724 5721 5718 5716 5714 5711 5708 5705 5702 5699 5697 5694 5692 5689 5687 5686 5685 5684 5683 5682 5682 5683 5683
5770 5769 5768 5766 5764 5763 5760 5758 5756 5753 5751 5747 5744 5741 5737 5734 5731 5728 5724 5721 5718 5715 5712 5709 5706 5703 5700 5697 5694 5691 5689 5686 5683 5680 5678 5676 5675 5673 5672 5671 5671 5672 5672
5767 5765 5764 5762 5760 5758 5756 5754 5752 5749 5746 5743 5739 5736 5733 5729 5726 5722 5719 5715 5712 5708 5705 5702 5699 5696 5693 5689 5686 5683 5680 5677 5674 5671 5669 5667 5665 5664 5662 5661 5660 5660 5660
5763 5762 5760 5758 5756 5754 5752 5750 5747 5745 5741 5738 5735 5732 5728 5724 5720 5717 5713 5709 5706 5702 5699 5695 5692 5689 5685 5682 5679 5675 5672 5669 5666 5664 5660 5658 5656 5654 5652 5651 5650 5650 5649
5760 5758 5756 5754 5752 5750 5748 5745 5743 5740 5737 5733 5730 5727 5723 5719 5715 5711 5707 5703 5699 5695 5692 5689 5685 5682 5678 5675 5671 5668 5664 5661 5658 5655 5652 5650 5647 5645 5643 5641 5640 5639 5639
5756 5754 5752 5750 5748 5746 5743 5741 5738 5735 5732 5728 5725 5722 5718 5714 5710 5706 5702 5698 5694 5690 5686 5682 5679 5675 5672 5668 5664 5661 5657 5653 5650 5647 5644 5642 5639 5637 5634 5632 5630 5629 5628
5751 5749 5747 5745 5743 5741 5739 5736 5733 5730 5727 5723 5720 5717 5713 5710 5706 5701 5697 5693 5689 5685 5680 5676 5673 5669 5665 5661 5658 5654 5650 5646 5643 5639 5636 5633 5630 5628 5625 5622 5620 5619 5618
5746 5744 5742 5741 5739 5737 5734 5731 5728 5725 5722 5719 5715 5712 5708 5704 5700 5696 5692 5688 5684 5679 5675 5671 5667 5663 5659 5655 5651 5647 5643 5639 5635 5632 5628 5625 5622 5618 5616 5613 5611 5609 5608